This is the latest recevied weather packets stored in our database for station/object DN9EM-1. If no packets are shown the sender has not sent any weather packets the latest 10 day(s).
| Time | Temp. | Humidity | Pressure | Rain* | Wind** | Luminosity | Snow |
|---|---|---|---|---|---|---|---|
| 1777838753 | 16.67° C | 83% | 1011.5 hPa | 0 mm | - | - | - |
| 1777838151 | 16.67° C | 82% | 1011.3 hPa | 0 mm | - | - | - |
| 1777837548 | 16.67° C | 80% | 1011.4 hPa | 0 mm | - | - | - |
| 1777836946 | 17.22° C | 79% | 1011.3 hPa | 0 mm | - | - | - |
| 1777836343 | 17.22° C | 79% | 1011.4 hPa | 0 mm | - | - | - |
| 1777835740 | 17.22° C | 79% | 1011.4 hPa | 0 mm | - | - | - |
| 1777835138 | 17.22° C | 78% | 1011.3 hPa | 0 mm | - | - | - |
| 1777834535 | 17.78° C | 75% | 1011.1 hPa | 0 mm | - | - | - |
| 1777833933 | 18.33° C | 71% | 1011.1 hPa | 0 mm | - | - | - |
| 1777833331 | 18.33° C | 70% | 1010.7 hPa | 0 mm | - | - | - |
| 1777832728 | 18.33° C | 69% | 1010.5 hPa | 0 mm | - | - | - |
| 1777832125 | 18.33° C | 68% | 1010.3 hPa | 0 mm | - | - | - |
| 1777831522 | 18.33° C | 68% | 1010.3 hPa | 0 mm | - | - | - |
| 1777830920 | 18.89° C | 66% | 1010.1 hPa | 0 mm | - | - | - |
| 1777830317 | 19.44° C | 64% | 1010 hPa | 0 mm | - | - | - |
| 1777829715 | 20.56° C | 62% | 1009.7 hPa | 0 mm | - | - | - |
| 1777829172 | 22.22° C | 57% | 1009.6 hPa | 0 mm | - | - | - |
| 1777828570 | 22.78° C | 45% | 1009.2 hPa | 0 mm | - | - | - |
| 1777827967 | 22.78° C | 45% | 1009.1 hPa | 0 mm | - | - | - |
| 1777827364 | 23.33° C | 44% | 1008.9 hPa | 0 mm | - | - | - |
| 1777826762 | 23.33° C | 44% | 1008.9 hPa | 0 mm | - | - | - |
| 1777826159 | 23.89° C | 44% | 1009 hPa | 0 mm | - | - | - |
| 1777825557 | 24.44° C | 42% | 1009.1 hPa | 0 mm | - | - | - |
| 1777824954 | 24.44° C | 43% | 1009 hPa | 0 mm | - | - | - |
| 1777824352 | 24.44° C | 43% | 1009 hPa | 0 mm | - | - | - |
* Rain latest hour (hover to see other rain measurements)
** Current wind speed in m/s (hover to see current wind gust speed)